GW0206 Weather Reports


time (UTC)temp
F
wind
direction
speed
knots
gust
knots
rain 1hr
in
rain 24hr
in
rain mn
in
humidity
%
barometer
mb
20260504014004 51 36 3.5 7.8 0.00 0.00 0.00 56 1012.8
20260504013502 51 47 2.6 7.0 0.00 0.00 0.00 56 1012.6
20260504013004 51 55 2.6 7.8 0.00 0.00 0.00 56 1012.7
20260504012502 51 50 4.3 7.8 0.00 0.00 0.00 55 1012.7
20260504012003 51 61 3.5 7.8 0.00 0.00 0.00 55 1012.7
20260504011510 51 43 3.5 7.8 0.00 0.00 0.00 56 1012.7
20260504011001 51 36 3.5 7.8 0.00 0.00 0.00 55 1012.7
20260504010503 51 63 3.5 6.1 0.00 0.00 0.00 55 1012.8
20260504010003 51 26 3.5 6.1 0.00 0.00 0.00 55 1012.8
20260504005503 52 53 2.6 6.1 0.00 0.00 0.00 55 1012.7
20260504005004 52 42 2.6 7.8 0.00 0.00 0.00 55 1012.8
20260504004503 52 57 3.5 7.8 0.00 0.00 0.00 54 1012.7
20260504004002 52 36 3.5 7.8 0.00 0.00 0.00 54 1012.8
20260504003506 53 62 3.5 7.8 0.00 0.00 0.00 53 1012.8
20260504003005 53 55 4.3 7.8 0.00 0.00 0.00 53 1012.7
20260504002502 53 32 3.5 7.8 0.00 0.00 0.00 54 1012.7
20260504002004 54 38 3.5 9.6 0.00 0.00 0.00 53 1012.8
20260504001504 54 49 4.3 9.6 0.00 0.00 0.00 52 1012.8
20260504001002 54 51 4.3 8.7 0.00 0.00 0.00 51 1012.8
20260504000502 54 57 4.3 8.7 0.00 0.00 0.00 51 1012.8
20260504000004 55 74 4.3 8.7 0.00 0.00 0.00 51 1012.8
20260503235502 55 66 4.3 8.7 0.00 0.00 0.00 50 1012.9
20260503235003 55 88 2.6 8.7 0.00 0.00 0.00 51 1013.0
20260503234505 55 105 3.5 9.6 0.00 0.00 0.00 50 1013.0
20260503234003 55 74 6.1 11.3 0.00 0.00 0.00 48 1013.0
20260503233503 56 86 4.3 13.0 0.00 0.00 0.00 49 1013.0
20260503233003 56 64 7.8 14.8 0.00 0.00 0.00 47 1013.0
20260503232505 56 41 5.2 14.8 0.00 0.00 0.00 47 1013.0
20260503232003 57 44 7.0 13.9 0.00 0.00 0.00 47 1013.1
20260503231503 57 116 6.1 15.6 0.00 0.00 0.00 47 1013.1
20260503231003 57 70 5.2 15.6 0.00 0.00 0.00 47 1013.1
20260503230503 57 71 7.8 15.6 0.00 0.00 0.00 45 1013.0
20260503230004 58 110 7.0 15.6 0.00 0.00 0.00 45 1013.0
20260503225505 58 38 8.7 14.8 0.00 0.00 0.00 46 1012.9
20260503225005 58 76 8.7 18.2 0.00 0.00 0.00 46 1013.0
20260503224506 57 57 8.7 18.2 0.00 0.00 0.00 46 1013.0
20260503224002 57 44 9.6 21.7 0.00 0.00 0.00 46 1013.0
20260503223503 57 83 9.6 21.7 0.00 0.00 0.00 46 1012.9
20260503223008 57 65 7.0 13.0 0.00 0.00 0.00 46 1013.1
20260503222503 57 131 7.0 14.8 0.00 0.00 0.00 47 1013.1
20260503222003 57 101 7.0 14.8 0.00 0.00 0.00 47 1013.2
20260503221503 58 59 7.0 15.6 0.00 0.00 0.00 46 1013.1
20260503221003 58 69 9.6 15.6 0.00 0.00 0.00 45 1013.1
20260503220503 58 98 7.8 15.6 0.00 0.00 0.00 46 1013.1
20260503220007 58 40 7.8 15.6 0.00 0.00 0.00 44 1013.2
20260503215502 58 82 8.7 17.4 0.00 0.00 0.00 44 1013.1
20260503215002 59 101 10.4 17.4 0.00 0.00 0.00 43 1013.1
20260503214504 59 65 7.0 13.9 0.00 0.00 0.00 46 1013.2
20260503214003 59 82 5.2 16.5 0.00 0.00 0.00 44 1013.2
20260503213506 59 102 9.6 17.4 0.00 0.00 0.00 44 1013.2
20260503213006 58 114 9.6 17.4 0.00 0.00 0.00 44 1013.2
20260503212504 58 104 7.8 18.2 0.00 0.00 0.00 44 1013.2
20260503212004 58 87 7.0 20.0 0.00 0.00 0.00 44 1013.2
20260503211506 58 75 9.6 20.9 0.00 0.00 0.00 45 1013.2
20260503211003 58 55 7.0 20.9 0.00 0.00 0.00 45 1013.2
20260503210507 59 69 8.7 17.4 0.00 0.00 0.00 43 1013.3
20260503210006 59 63 8.7 15.6 0.00 0.00 0.00 44 1013.2
20260503205503 59 40 10.4 17.4 0.00 0.00 0.00 43 1013.1
20260503205004 59 59 11.3 17.4 0.00 0.00 0.00 43 1013.2
20260503204516 60 46 9.6 17.4 0.00 0.00 0.00 44 1013.1
20260503204004 60 101 7.8 17.4 0.00 0.00 0.00 42 1013.2
20260503203504 60 69 7.8 16.5 0.00 0.00 0.00 43 1013.2
20260503203007 59 90 9.6 20.0 0.00 0.00 0.00 46 1013.3
20260503202503 59 57 10.4 20.0 0.00 0.00 0.00 44 1013.3
20260503202004 59 81 7.8 19.1 0.00 0.00 0.00 44 1013.3
20260503201509 60 50 10.4 19.1 0.00 0.00 0.00 43 1013.5
20260503201004 60 53 8.7 16.5 0.00 0.00 0.00 43 1013.5
20260503200504 61 50 7.8 17.4 0.00 0.00 0.00 41 1013.5
20260503200008 61 97 10.4 17.4 0.00 0.00 0.00 44 1013.7
20260503195504 60 64 8.7 18.2 0.00 0.00 0.00 45 1013.8
20260503195004 59 42 10.4 18.2 0.00 0.00 0.00 47 1014.0
20260503194508 58 96 8.7 15.6 0.00 0.00 0.00 44 1014.0
20260503194005 59 49 6.1 17.4 0.00 0.00 0.00 44 1014.1
20260503193505 59 56 11.3 17.4 0.00 0.00 0.00 44 1014.1
20260503193013 59 92 7.0 16.5 0.00 0.00 0.00 43 1014.3
20260503192505 60 32 7.8 17.4 0.00 0.00 0.00 44 1014.4
20260503192004 60 108 10.4 17.4 0.00 0.00 0.00 44 1014.3
20260503191527 59 57 8.7 17.4 0.00 0.00 0.00 45 1014.3
20260503191004 59 65 10.4 17.4 0.00 0.00 0.00 47 1014.4
20260503190505 60 117 7.0 17.4 0.00 0.00 0.00 42 1014.5
20260503190008 60 105 7.8 19.1 0.00 0.00 0.00 45 1014.6
20260503185504 59 35 9.6 19.1 0.00 0.00 0.00 41 1014.7
20260503185005 60 117 9.6 17.4 0.00 0.00 0.00 41 1014.7
20260503184510 60 102 7.0 13.9 0.00 0.00 0.00 46 1014.9
20260503184006 60 53 5.2 15.6 0.00 0.00 0.00 45 1014.9
20260503183508 59 101 7.8 15.6 0.00 0.00 0.00 42 1014.9
20260503183009 59 98 8.7 14.8 0.00 0.00 0.00 41 1014.9
20260503182503 59 54 8.7 16.5 0.00 0.00 0.00 43 1014.9
20260503182005 59 73 7.8 17.4 0.00 0.00 0.00 45 1015.0
20260503181514 58 73 8.7 18.2 0.00 0.00 0.00 46 1015.0
20260503181005 59 101 10.4 18.2 0.00 0.00 0.00 43 1015.0
20260503180507 60 50 6.1 13.9 0.00 0.00 0.00 45 1015.1
20260503180014 60 109 7.0 15.6 0.00 0.00 0.00 47 1015.2
20260503175507 59 113 8.7 15.6 0.00 0.00 0.00 46 1015.2
20260503175002 59 40 8.7 17.4 0.00 0.00 0.00 45 1015.2
20260503174513 58 129 7.0 17.4 0.00 0.00 0.00 49 1015.3
20260503174006 59 79 6.1 16.5 0.00 0.00 0.00 47 1015.3
20260503173503 59 111 10.4 16.5 0.00 0.00 0.00 45 1015.3
20260503173011 59 88 6.1 15.6 0.00 0.00 0.00 49 1015.4
20260503172507 59 63 9.6 15.6 0.00 0.00 0.00 47 1015.4
20260503172006 58 36 5.2 17.4 0.00 0.00 0.00 50 1015.6
20260503171516 58 114 11.3 17.4 0.00 0.00 0.00 47 1015.8
20260503171003 58 60 8.7 16.5 0.00 0.00 0.00 52 1015.7
20260503170503 57 61 7.0 14.8 0.00 0.00 0.00 49 1015.8
20260503151002 51 131 6.1 15.6 0.00 0.00 0.00 55 1016.9
20260503150505 51 73 6.1 15.6 0.00 0.00 0.00 55 1017.0
20260503131003 45 60 4.3 8.7 0.00 0.00 0.00 66 1017.4
20260503130503 44 84 3.5 8.7 0.00 0.00 0.00 68 1017.3
20260503110510 32 61 2.6 4.3 0.00 0.00 0.00 92 1016.5
20260503090508 31 82 0.0 1.7 0.00 0.00 0.00 90 1016.2
20260503081524 33 84 0.9 2.6 0.00 0.01 0.00 89 1016.2
20260503081004 33 81 0.9 2.6 0.00 0.01 0.00 89 1016.2
20260503080503 33 81 0.9 2.6 0.00 0.01 0.00 89 1016.2
20260503072502 34 84 0.9 2.6 0.00 0.01 0.00 86 1016.2
20260503072004 34 84 0.9 2.6 0.00 0.01 0.00 86 1016.2
20260503071516 34 80 0.9 3.5 0.00 0.01 0.00 86 1016.2
20260503071004 35 63 1.7 3.5 0.00 0.01 0.00 86 1016.2
20260503070506 35 80 1.7 3.5 0.00 0.01 0.00 86 1016.1
20260503055006 37 85 0.9 2.6 0.00 0.02 0.00 83 1016.4
20260503054523 37 56 0.9 2.6 0.00 0.02 0.00 82 1016.4
20260503054003 37 56 0.9 3.5 0.00 0.02 0.00 83 1016.4
20260503053504 37 80 0.9 3.5 0.00 0.02 0.00 83 1016.4
20260503053026 37 74 0.9 3.5 0.00 0.02 0.00 83 1016.4
20260503052509 37 65 1.7 3.5 0.00 0.02 0.00 84 1016.4
20260503052003 37 76 0.9 2.6 0.00 0.02 0.00 83 1016.4
20260503051511 37 76 0.9 2.6 0.00 0.02 0.00 83 1016.4
20260503051004 37 76 0.0 2.6 0.00 0.02 0.00 83 1016.5
20260503050503 37 76 0.0 2.6 0.00 0.02 0.00 83 1016.5
20260503050013 37 76 0.9 2.6 0.00 0.02 0.00 83 1016.6
20260503045503 37 76 0.9 2.6 0.00 0.02 0.00 83 1016.6
20260503045004 37 91 0.9 2.6 0.00 0.02 0.00 83 1016.6
20260503044515 37 80 0.0 1.7 0.00 0.02 0.00 84 1016.6
20260503044007 37 80 0.0 1.7 0.00 0.02 0.00 84 1016.6
20260503043507 37 77 0.9 2.6 0.00 0.02 0.00 83 1016.6
20260503043036 37 77 1.7 2.6 0.00 0.02 0.00 83 1016.5
20260503042508 37 90 0.9 2.6 0.00 0.02 0.00 83 1016.7
20260503042008 37 92 0.9 2.6 0.00 0.02 0.00 83 1016.6
20260503041526 37 92 0.9 2.6 0.00 0.02 0.00 84 1016.7
20260503041007 37 82 0.9 2.6 0.00 0.02 0.00 83 1016.6
20260503040503 37 71 0.9 2.6 0.00 0.02 0.00 83 1016.7
20260503040025 37 71 0.9 2.6 0.00 0.02 0.00 83 1016.7
20260503035504 37 93 0.9 1.7 0.00 0.02 0.02 83 1016.8
20260503035003 37 144 0.0 0.0 0.00 0.02 0.02 83 1016.7
20260503034513 37 144 0.0 0.0 0.00 0.02 0.02 84 1016.7
20260503034003 37 144 0.0 0.0 0.00 0.02 0.02 84 1016.7
20260503033504 37 144 0.0 1.7 0.00 0.02 0.02 84 1016.7
20260503033020 37 144 0.0 1.7 0.00 0.02 0.02 84 1016.7
20260503032508 37 144 0.0 1.7 0.00 0.02 0.02 84 1016.7
20260503032011 37 144 0.0 1.7 0.00 0.02 0.02 84 1016.8
20260503031514 37 144 0.0 1.7 0.00 0.02 0.02 84 1016.8
20260503031007 37 144 0.0 1.7 0.00 0.02 0.02 84 1016.8
20260503030507 37 144 0.0 1.7 0.00 0.02 0.02 83 1016.8
20260503030026 37 144 0.0 1.7 0.00 0.02 0.02 83 1016.8
20260503025503 37 144 0.0 1.7 0.00 0.02 0.02 83 1016.9
20260503025008 37 144 0.0 1.7 0.00 0.02 0.02 83 1016.9
20260503024529 37 144 0.0 1.7 0.00 0.02 0.02 83 1016.9
20260503024010 37 144 0.0 0.9 0.00 0.02 0.02 82 1017.0
20260503023508 37 144 0.0 0.9 0.00 0.02 0.02 82 1017.0
20260503023015 37 144 0.0 1.7 0.00 0.02 0.02 81 1017.1
20260503022505 37 144 0.0 1.7 0.00 0.02 0.02 81 1017.1
20260503022011 37 144 0.0 0.9 0.00 0.02 0.02 81 1017.1
20260503021539 37 144 0.0 1.7 0.00 0.02 0.02 80 1017.0
20260503021009 37 144 0.0 1.7 0.00 0.02 0.02 80 1017.1
20260503020509 37 144 0.0 0.9 0.00 0.02 0.02 79 1017.1
20260503020018 37 144 0.0 1.7 0.00 0.02 0.02 78 1017.1
20260503015513 37 144 0.0 1.7 0.00 0.02 0.02 78 1017.0
20260503015004 38 144 0.0 0.9 0.00 0.02 0.02 77 1017.0
20260503014511 38 144 0.0 0.9 0.00 0.02 0.02 77 1017.0